[[{"header":{"parameterUnit":"m.s-1","parameterCategory":1,"la1":30.2992,"la2":30.254,"lo1":-89.0895,"lo2":-89.0443,"dy":0.0025,"dx":0.0025,"nx":19,"ny":19,"refTime":"2026-05-17T09:00:00:Z","depth":0,"parameterNumber":2,"parameterNumberName":"U-component_of_WINDS"},"data":[0,0,0,-5.0317,-5.0319,-5.0425,-5.0426,-5.0572,-5.0574,0,0,0,0,0,0,0,0,0,0,0,-5.0293,-5.0294,-5.0316,-5.0319,-5.0425,-5.0426,-5.0572,-5.0574,0,0,0,0,0,0,0,0,0,0,0,-5.0292,-5.0294,-5.0295,-5.032,-5.0425,-5.0426,-5.0572,-5.0487,0,0,0,0,0,0,0,0,0,0,-5.0382,-5.0368,-5.0293,-5.0295,-5.032,-5.0425,-5.0426,-5.0483,-5.0493,-5.0529,0,-5.0565,0,-5.0572,-5.0584,-5.0585,0,0,0,-5.0313,-5.036,-5.0382,-5.0296,-5.0321,-5.0425,-5.0376,-5.0488,-5.0499,-5.0542,-5.0567,-5.0572,-5.0574,-5.0585,-5.0586,-5.082,-5.0822,0,0,-5.0307,-5.0316,-5.0375,-5.039,-5.0376,-5.0372,-5.0379,-5.0495,-5.0522,-5.0567,-5.0575,-5.0577,-5.0586,-5.0588,-5.0819,-5.0821,0,0,0,-5.0294,-5.0312,-5.0331,-5.0384,-5.0402,-5.0376,-5.0383,-5.0517,-5.0522,-5.0577,-5.0578,-5.0587,-5.0589,-5.0818,-5.082,-5.0895,0,0,0,-5.0291,-5.0304,-5.0328,-5.0335,-5.0401,-5.0461,-5.0403,-5.0514,-5.0527,-5.0578,-5.0587,-5.0591,-5.0816,-5.0819,-5.089,-5.0928,0,0,0,-5.0283,-5.0303,-5.0322,-5.0335,-5.0381,-5.0459,-5.0471,-5.0517,-5.0528,-5.0585,-5.0591,-5.0815,-5.0818,-5.0885,-5.092,-5.0991,0,0,0,-5.0277,-5.0387,-5.0323,-5.0447,-5.038,-5.0507,-5.047,-5.0563,-5.0621,-5.0588,-5.0816,-5.0819,-5.0883,-5.0916,-5.0986,-5.1049,-5.1078,0,0,-5.042,-5.0405,-5.0477,-5.0423,-5.0562,-5.049,-5.064,-5.0684,-5.0682,-5.0774,-5.0779,-5.0892,-5.092,-5.099,-5.1238,-5.1261,0,0,0,-5.0525,-5.0577,-5.0612,-5.0668,-5.0707,-5.0741,-5.0762,-5.0779,-5.0857,-5.0731,-5.0937,-5.0954,-5.0995,-5.1024,-5.1043,-5.1076,-5.0835,-5.0834,-5.0834,-5.0738,-5.073,-5.0848,-5.0854,-5.0909,-5.093,-5.0973,-5.0999,-5.0974,-5.1023,-5.1049,-5.1201,-5.1237,-5.1251,-5.1286,-5.1085,-5.1085,-5.1086,-5.1086,-5.0945,-5.1015,-5.0982,-5.1085,-5.1076,-5.1161,-5.1187,-5.1166,-5.1243,-5.1181,-5.1216,-5.1145,-5.1276,-5.1305,-5.1091,-5.109,-5.109,-5.1089,-5.1089,-5.108,-5.1112,-5.1133,-5.1213,-5.1276,-5.1278,-5.1354,-5.1344,-5.1334,-5.1369,-5.1394,-5.1393,-5.1388,-5.1383,-5.1384,-5.1384,-5.1384,-5.1385,-5.1385,-5.1211,-5.1231,-5.1297,-5.1348,-5.1383,-5.1427,-5.1451,-5.1485,-5.1519,-5.1505,-5.1505,-5.1474,-5.1292,-5.1244,-5.1393,-5.1392,-5.1391,-5.139,-5.1389,-5.1417,-5.1369,-5.1471,-5.1506,-5.1565,-5.1627,-5.1615,-5.1684,-5.171,-5.1748,-5.1711,-5.1579,-5.1561,-5.1546,-5.1506,-5.1714,-5.1714,-5.1714,-5.1714,-5.1528,-5.152,-5.1621,-5.1678,-5.1733,-5.1732,-5.1846,-5.1866,-5.1879,-5.1895,-5.1864,-5.1812,-5.1797,-5.1788,-5.1767,-5.173,-5.199,-5.199,-5.1991,-5.1654,-5.165,-5.1749,-5.1763,-5.1809,-5.1848,-5.1954,-5.2019,-5.2024,-5.2001,-5.1906,-5.1894,-5.181,-5.1784,-5.1754,-5.1723,-5.1654,0,0]},{"header":{"parameterUnit":"m.s-1","parameterCategory":1,"la1":30.2992,"la2":30.254,"lo1":-89.0895,"lo2":-89.0443,"dy":0.0025,"dx":0.0025,"nx":19,"ny":19,"refTime":"2026-05-17T09:00:00:Z","depth":0,"parameterNumber":3,"parameterNumberName":"V-component_of_WINDS"},"data":[0,0,0,2.7077,2.7077,2.7088,2.7088,2.7113,2.7113,0,0,0,0,0,0,0,0,0,0,0,2.7081,2.7082,2.7077,2.7078,2.7088,2.7088,2.7113,2.7113,0,0,0,0,0,0,0,0,0,0,0,2.7081,2.7081,2.7082,2.7078,2.7088,2.7088,2.7113,2.71,0,0,0,0,0,0,0,0,0,0,2.7088,2.7099,2.7081,2.7082,2.7078,2.7088,2.7088,2.71,2.7101,2.7113,0,2.7126,0,2.712,2.7116,2.7116,0,0,0,2.7071,2.7098,2.7095,2.7082,2.7078,2.7088,2.7082,2.71,2.7102,2.7115,2.7126,2.7127,2.7121,2.7116,2.7116,2.7209,2.7209,0,0,2.7071,2.7086,2.7093,2.7096,2.7096,2.7081,2.7082,2.7101,2.7114,2.7126,2.7127,2.7121,2.7116,2.7116,2.7208,2.7209,0,0,0,2.7073,2.7086,2.7082,2.7095,2.7097,2.7082,2.7083,2.7113,2.7111,2.7127,2.7122,2.7116,2.7117,2.7207,2.7208,2.726,0,0,0,2.7073,2.7088,2.7082,2.7092,2.7097,2.7105,2.7094,2.7109,2.7111,2.7121,2.7116,2.7117,2.7206,2.7208,2.7257,2.7281,0,0,0,2.7078,2.7088,2.7092,2.7093,2.7098,2.7104,2.7103,2.7109,2.7108,2.7116,2.7117,2.7206,2.7207,2.7254,2.7276,2.7312,0,0,0,2.7087,2.7135,2.7093,2.7145,2.7098,2.7137,2.7102,2.713,2.7143,2.7116,2.7206,2.7208,2.7253,2.7274,2.7309,2.7344,2.7361,0,0,2.7157,2.7144,2.7174,2.7137,2.7187,2.7134,2.7192,2.7188,2.7173,2.7197,2.72,2.7258,2.7276,2.7311,2.7446,2.7459,0,0,0,2.7201,2.7223,2.7233,2.7248,2.7248,2.725,2.7237,2.7236,2.7256,2.7189,2.7279,2.729,2.7309,2.7326,2.7337,2.7353,2.7216,2.7216,2.7216,2.732,2.7302,2.735,2.7335,2.735,2.7337,2.7348,2.7344,2.7318,2.7341,2.7347,2.7432,2.7451,2.746,2.7477,2.7365,2.7365,2.7365,2.7365,2.742,2.7449,2.7418,2.7454,2.7436,2.7465,2.7456,2.7438,2.7463,2.7424,2.744,2.74,2.7475,2.7489,2.7369,2.7368,2.7368,2.7367,2.7367,2.7496,2.7507,2.7507,2.753,2.7549,2.7531,2.7559,2.7539,2.7521,2.7537,2.7544,2.7543,2.754,2.7542,2.7542,2.7543,2.7543,2.7543,2.7543,2.7575,2.7574,2.76,2.7608,2.7617,2.7626,2.7617,2.7625,2.7629,2.7613,2.7613,2.7587,2.7485,2.7461,2.7548,2.7547,2.7546,2.7546,2.7546,2.7683,2.7657,2.7697,2.7706,2.7716,2.7738,2.7715,2.7734,2.7738,2.7752,2.7724,2.7652,2.7637,2.7628,2.7607,2.7727,2.7727,2.7727,2.7727,2.7748,2.774,2.7778,2.7796,2.781,2.7795,2.7841,2.7837,2.7826,2.7828,2.7808,2.7779,2.7771,2.7761,2.7749,2.773,2.7878,2.7878,2.7878,2.7814,2.7807,2.7851,2.7843,2.7851,2.7857,2.7902,2.7923,2.7905,2.7884,2.7829,2.7823,2.7776,2.7762,2.7737,2.7719,2.7683,0,0]}]]